Terminal Aerodrome Forecast
Issued by NWS

Home | Current Version | Previous Version | Text Only | Print | Product List | Glossary On
Versions: 1 2 3 4 5 6 7 8 9 10 11 12 13 14 15 16
000
FTUS43 KICT 241300 AAA
TAFHUT
TAF AMD
KHUT 241325Z 2413/2512 35017KT P6SM VCTS SCT010 OVC040CB
     FM241500 33022G30KT P6SM BKN080
     FM242000 33017G25KT P6SM SKC=

USA.gov is the U.S. government's official web portal to all federal, state and local government web resources and services.